This is the latest recevied weather packets stored in our database for station/object W4DEX-2. If no packets are shown the sender has not sent any weather packets the latest 10 day(s).
| Time | Temp. | Humidity | Pressure | Rain* | Wind** | Luminosity | Snow |
|---|---|---|---|---|---|---|---|
| 1778009402 | 26.11° C | 29% | 1014.4 hPa | 0 mm | 4.92 m/s, 178° | - | - |
| 1778009102 | 26.11° C | 28% | 1014.4 hPa | 0 mm | 4.92 m/s, 177° | - | - |
| 1778008803 | 25.56° C | 29% | 1014.4 hPa | 0 mm | 5.36 m/s, 183° | - | - |
| 1778008503 | 26.11° C | 30% | 1014.5 hPa | 0 mm | 4.92 m/s, 175° | - | - |
| 1778008203 | 25.56° C | 30% | 1014.8 hPa | 0 mm | 4.47 m/s, 184° | - | - |
| 1778007902 | 26.11° C | 29% | 1015 hPa | 0 mm | 4.47 m/s, 181° | - | - |
| 1778007603 | 26.11° C | 28% | 1014.9 hPa | 0 mm | 4.92 m/s, 184° | - | - |
| 1778007302 | 27.22° C | 27% | 1014.9 hPa | 0 mm | 5.36 m/s, 189° | - | - |
| 1778006702 | 26.67° C | 26% | 1015.4 hPa | 0 mm | 3.58 m/s, 184° | - | - |
| 1778006402 | 26.11° C | 28% | 1015.5 hPa | 0 mm | 4.47 m/s, 176° | - | - |
| 1778006102 | 26.11° C | 29% | 1015.3 hPa | 0 mm | 5.36 m/s, 178° | - | - |
| 1778005803 | 26.11° C | 28% | 1015.2 hPa | 0 mm | 4.92 m/s, 181° | - | - |
| 1778005202 | 26.11° C | 30% | 1015.5 hPa | 0 mm | 4.92 m/s, 182° | - | - |
| 1778004602 | 25.56° C | 29% | 1015.5 hPa | 0 mm | 4.92 m/s, 179° | - | - |
| 1778004302 | 25.56° C | 28% | 1015.5 hPa | 0 mm | 4.92 m/s, 184° | - | - |
| 1778003703 | 25.56° C | 28% | 1015.4 hPa | 0 mm | 5.81 m/s, 178° | - | - |
| 1778003402 | 25.56° C | 29% | 1015.4 hPa | 0 mm | 5.36 m/s, 180° | - | - |
| 1778003102 | 25.56° C | 29% | 1015.5 hPa | 0 mm | 5.36 m/s, 184° | - | - |
| 1778002503 | 25.56° C | 28% | 1015.4 hPa | 0 mm | 5.36 m/s, 174° | - | - |
| 1778002202 | 25.56° C | 29% | 1015.3 hPa | 0 mm | 3.58 m/s, 184° | - | - |
| 1778001902 | 25.56° C | 29% | 1015.7 hPa | 0 mm | 4.92 m/s, 192° | - | - |
| 1778001605 | 25° C | 30% | 1015.7 hPa | 0 mm | 4.47 m/s, 182° | - | - |
| 1778001302 | 25° C | 30% | 1015.6 hPa | 0 mm | 4.02 m/s, 185° | - | - |
| 1778001003 | 25° C | 32% | 1015.7 hPa | 0 mm | 5.81 m/s, 176° | - | - |
| 1778000402 | 24.44° C | 31% | 1016 hPa | 0 mm | 4.92 m/s, 183° | - | - |
* Rain latest hour (hover to see other rain measurements)
** Current wind speed in m/s (hover to see current wind gust speed)